[[{"header":{"parameterUnit":"m.s-1","parameterCategory":2,"la1":30.2991,"la2":30.254,"lo1":-89.0895,"lo2":-89.0444,"dy":0.0017,"dx":0.0017,"nx":28,"ny":28,"refTime":"2025-06-13T21:00:00:Z","depth":"0","parameterNumber":2,"parameterNumberName":"U-component_of_CURRENTS"},"data":[0,0,0,0,0,0,0,0,0,0,0,0,0,0,0,0,0,0,0,0,0,0,0,0,0,0,0,0,0,0,0,0,0,0,0,0,0,0,0,0,0,0,0,0,0,0,0,0,0,0,0,0,0,0,0,0,0,0,0.1937,0.1937,0,0.1926,0.1926,0.1926,0.1885,0.1884,0.1883,0.1883,0.1806,0.1805,0.1804,0,0,0,0,0,0,0,0,0,0,0,0,0,0.1942,0.1942,0.1937,0.1937,0.1937,0.1926,0.1926,0.1926,0.1885,0.1884,0.1883,0.1882,0.1807,0.1805,0.1804,0,0,0,0,0,0,0,0,0,0,0,0,0,0.1935,0.1942,0.1937,0.1917,0.1915,0.1926,0.1926,0.1925,0.1885,0.1884,0.1883,0.1882,0.1807,0.1805,0.1803,0.1814,0,0,0.1797,0.1796,0,0,0,0,0,0,0,0,0.1935,0.1934,0.192,0.1919,0.1917,0.1907,0.19,0.1885,0.1885,0.1895,0.1883,0.1881,0.1836,0.1832,0.183,0.181,0.1807,0.1797,0.1796,0.1795,0.1794,0,0,0,0,0,0,0,0.1936,0.1935,0.1931,0.192,0.1918,0.1915,0.1913,0.1897,0.1869,0.1894,0.1891,0.1893,0.1834,0.1832,0.1828,0.1806,0.1797,0.1795,0.1794,0.1793,0.1813,0.1815,0,0,0,0,0,0,0.1941,0.1935,0.1931,0.1931,0.1926,0.1916,0.1913,0.191,0.1871,0.1865,0.1894,0.1892,0.1836,0.183,0.1825,0.1848,0.1795,0.1793,0.1792,0.1812,0.1814,0.1816,0,0,0,0,0,0,0.1941,0.1941,0.1932,0.1935,0.1933,0.1917,0.1914,0.191,0.1911,0.1872,0.1864,0.1899,0.1835,0.1828,0.182,0.1844,0.1792,0.179,0.181,0.1812,0.1815,0.1885,0,0,0,0,0,0,0.1941,0.1941,0.1945,0.1935,0.1934,0.1947,0.1915,0.1911,0.1915,0.1911,0.1874,0.1865,0.1834,0.1823,0.1818,0.184,0.1789,0.1807,0.1811,0.1814,0.1881,0.189,0.1898,0,0,0,0,0,0.1942,0.1947,0.1945,0.1945,0.1938,0.1948,0.1947,0.193,0.1916,0.1925,0.19,0.1867,0.184,0.1822,0.1816,0.1839,0.1806,0.181,0.1814,0.1877,0.1888,0.1897,0,0,0,0,0,0,0.1951,0.1944,0.1941,0.1944,0.1952,0.1942,0.1947,0.194,0.1929,0.1923,0.1882,0.1873,0.1881,0.1854,0.1835,0.1857,0.1821,0.1824,0.1871,0.1881,0.189,0.1893,0.1787,0,0,0,0,0,0.1957,0.1956,0.1959,0.1962,0.1968,0.1962,0.1965,0.1959,0.1948,0.1942,0.1918,0.1898,0.1894,0.1881,0.1872,0.1876,0.1892,0.189,0.1899,0.1906,0.1906,0.1989,0.2006,0.1828,0.1828,0.1828,0,0,0.1958,0.1958,0.1954,0.1964,0.1965,0.198,0.196,0.1972,0.1987,0.1936,0.1943,0.1929,0.1905,0.1914,0.1915,0.189,0.1964,0.1911,0.1917,0.1913,0.1995,0.2013,0.2028,0.1831,0.1831,0.183,0,0,0.1961,0.1965,0.1966,0.1979,0.1992,0.1997,0.2006,0.2008,0.2013,0.2022,0.1999,0.2001,0.198,0.1975,0.1967,0.202,0.2015,0.2019,0.2051,0.2133,0.2148,0.2162,0.2199,0.2215,0.2014,0.2014,0.2014,0,0.1962,0.1966,0.1971,0.1984,0.1997,0.2008,0.2025,0.2041,0.2041,0.2062,0.2032,0.2038,0.2012,0.2037,0.2047,0.2038,0.2073,0.2011,0.2145,0.2159,0.2172,0.2207,0.2224,0.2018,0.2017,0.2017,0.2017,0,0.1965,0.1977,0.1984,0.2002,0.2023,0.204,0.2068,0.2096,0.2102,0.212,0.2153,0.2123,0.2127,0.2123,0.209,0.2166,0.2158,0.2156,0.212,0.2195,0.2225,0.2242,0.2023,0.2022,0.2021,0.202,0,0,0.1938,0.1976,0.1978,0.1996,0.2035,0.2052,0.2102,0.2154,0.2197,0.2202,0.2255,0.2237,0.2235,0.2226,0.22,0.2244,0.2351,0.2234,0.2236,0.2269,0.2515,0.2357,0.236,0.2387,0.2391,0.2393,0.2498,0,0.1937,0.1963,0.1986,0.2023,0.2044,0.2087,0.2135,0.2191,0.2233,0.2294,0.2301,0.2333,0.2273,0.2276,0.2319,0.2347,0.24,0.232,0.2437,0.2439,0.2291,0.2376,0.2193,0.2258,0.2514,0.2517,0.2519,0,0.1931,0.1953,0.1982,0.2046,0.2061,0.2089,0.218,0.2227,0.233,0.2367,0.2412,0.2428,0.2472,0.2424,0.2515,0.2473,0.2503,0.2518,0.2523,0.236,0.2313,0.2226,0.2278,0.2184,0.2544,0.2542,0.254,0,0.1907,0.1953,0.1978,0.1994,0.2067,0.21,0.2147,0.2247,0.2309,0.242,0.2475,0.2537,0.2565,0.2626,0.2616,0.2602,0.2719,0.2713,0.26,0.2589,0.2442,0.241,0.2412,0.2815,0.2815,0.2815,0.2814,0,0.1899,0.1921,0.1967,0.1979,0.2034,0.2088,0.2165,0.2235,0.2345,0.2425,0.2502,0.2554,0.2625,0.2679,0.2684,0.2666,0.2782,0.2617,0.2616,0.2457,0.2426,0.2341,0.2325,0.2819,0.2818,0.2817,0.2816,0,0.1879,0.1903,0.1938,0.1999,0.2022,0.2063,0.2165,0.2233,0.2334,0.2442,0.2481,0.2605,0.2661,0.2695,0.2784,0.2727,0.2638,0.2712,0.2482,0.2449,0.2216,0.221,0.2138,0.2098,0.2624,0.2621,0.2618,0,0.1874,0.1887,0.1939,0.1974,0.2001,0.2065,0.2123,0.2219,0.2292,0.2447,0.2501,0.2596,0.2643,0.2684,0.2596,0.2579,0.254,0.24,0.2327,0.2178,0.2176,0.2107,0.2077,0.2176,0.217,0.2165,0.2161,0,0.1879,0.1891,0.1919,0.1978,0.2027,0.2082,0.2159,0.22,0.2317,0.2397,0.2498,0.2549,0.2551,0.2427,0.236,0.2324,0.2228,0.2294,0.2237,0.1894,0.173,0.1696,0.2113,0.2117,0.2122,0.2125,0.2127,0.2129,0.1883,0.1899,0.1937,0.1985,0.2048,0.209,0.2086,0.2165,0.2229,0.228,0.2393,0.2362,0.2257,0.2119,0.2073,0.1805,0.1917,0.1716,0.1747,0.1709,0.1578,0.1851,0.1783,0.1785,0.1787,0.1789,0.1791,0,0.1889,0.1907,0.1954,0.1993,0.2027,0.2063,0.2108,0.2071,0.2076,0.2107,0.2139,0.1945,0.178,0.1663,0.1388,0.1274,0.1244,0.1235,0.1136,0.1161,0.1485,0.1366,0.1085,0.1085,0.1085,0.1085,0.1085,0.1085,0.1898,0.1918,0.1921,0.195,0.1972,0.1942,0.1921,0.1882,0.1858,0.1722,0.1571,0.1529,0.1387,0.1124,0.0907,0.0885,0.0854,0.0735,0.0855,0.1092,0.114,0.1186,0.107,0.0731,0.0731,0.043,0.0428,0.0426]},{"header":{"parameterUnit":"m.s-1","parameterCategory":2,"la1":30.2991,"la2":30.254,"lo1":-89.0895,"lo2":-89.0444,"dy":0.0017,"dx":0.0017,"nx":28,"ny":28,"refTime":"2025-06-13T21:00:00:Z","depth":"0","parameterNumber":3,"parameterNumberName":"V-component_of_CURRENTS"},"data":[0,0,0,0,0,0,0,0,0,0,0,0,0,0,0,0,0,0,0,0,0,0,0,0,0,0,0,0,0,0,0,0,0,0,0,0,0,0,0,0,0,0,0,0,0,0,0,0,0,0,0,0,0,0,0,0,0,0,0.0151,0.0151,0,0.0177,0.0178,0.0178,0.0182,0.0182,0.0182,0.0182,0.0183,0.0183,0.0184,0,0,0,0,0,0,0,0,0,0,0,0,0,0.011,0.0111,0.0151,0.0151,0.0151,0.0177,0.0178,0.0178,0.0182,0.0182,0.0182,0.0181,0.0183,0.0183,0.0184,0,0,0,0,0,0,0,0,0,0,0,0,0,0.0132,0.0111,0.0151,0.0156,0.0157,0.0177,0.0178,0.0178,0.0182,0.0182,0.0182,0.0181,0.0183,0.0183,0.0184,0.0195,0,0,0.0185,0.0185,0,0,0,0,0,0,0,0,0.013,0.0133,0.0155,0.0156,0.0157,0.0176,0.0164,0.0182,0.0183,0.0173,0.0182,0.0181,0.0178,0.0179,0.0186,0.0195,0.0195,0.0185,0.0185,0.0186,0.0186,0,0,0,0,0,0,0,0.0129,0.0132,0.0162,0.0155,0.0156,0.016,0.0162,0.0168,0.0178,0.0174,0.0174,0.0177,0.0179,0.0186,0.0186,0.0195,0.0185,0.0185,0.0186,0.0186,0.0199,0.0199,0,0,0,0,0,0,0.0125,0.0131,0.0161,0.0162,0.0142,0.0161,0.0164,0.017,0.0178,0.0179,0.0177,0.0177,0.0185,0.0185,0.0186,0.0194,0.0186,0.0186,0.0186,0.0199,0.0199,0.0199,0,0,0,0,0,0,0.0124,0.0128,0.016,0.0147,0.0151,0.0162,0.0169,0.0171,0.0178,0.0181,0.0181,0.0181,0.0185,0.0185,0.0189,0.0194,0.0186,0.0187,0.0199,0.0199,0.0199,0.0213,0,0,0,0,0,0,0.0123,0.0127,0.0132,0.0146,0.0151,0.0173,0.017,0.0172,0.018,0.018,0.0185,0.0184,0.0184,0.0189,0.019,0.0194,0.0187,0.0199,0.0199,0.0199,0.0212,0.0214,0.0215,0,0,0,0,0,0.0122,0.013,0.0132,0.0135,0.0157,0.0173,0.0176,0.0182,0.018,0.0186,0.0186,0.0184,0.019,0.0189,0.0191,0.0195,0.0198,0.0199,0.0199,0.0212,0.0213,0.0214,0,0,0,0,0,0,0.0114,0.0131,0.0134,0.0147,0.0159,0.0174,0.0181,0.0184,0.019,0.019,0.0188,0.0188,0.0194,0.0192,0.0191,0.0199,0.0193,0.0193,0.0202,0.0204,0.0205,0.0206,0.0187,0,0,0,0,0,0.0115,0.0125,0.014,0.015,0.0157,0.0169,0.0176,0.0182,0.0189,0.0192,0.0194,0.0194,0.0197,0.0198,0.0201,0.0207,0.0222,0.0209,0.021,0.0211,0.0212,0.0255,0.0261,0.0199,0.0199,0.0199,0,0,0.0112,0.0125,0.0129,0.0149,0.016,0.0176,0.0173,0.0187,0.0195,0.0191,0.0201,0.0201,0.02,0.0206,0.0208,0.0204,0.0234,0.0211,0.0212,0.0213,0.0256,0.0262,0.0268,0.02,0.02,0.02,0,0,0.0119,0.0127,0.0141,0.0154,0.0172,0.0181,0.0184,0.02,0.0202,0.0213,0.0209,0.0212,0.0217,0.0218,0.0218,0.0226,0.0241,0.0225,0.023,0.0272,0.0278,0.0283,0.0304,0.0311,0.0223,0.0223,0.0223,0,0.0116,0.0139,0.0146,0.0166,0.0178,0.0183,0.0202,0.0206,0.0219,0.022,0.0217,0.0227,0.0224,0.0232,0.023,0.023,0.0252,0.0227,0.0275,0.0281,0.0286,0.0307,0.0314,0.0224,0.0224,0.0224,0.0224,0,0.0137,0.0156,0.0166,0.0193,0.0203,0.0222,0.023,0.0235,0.0236,0.0239,0.0247,0.0246,0.0252,0.0249,0.024,0.0268,0.027,0.0276,0.0275,0.0293,0.0313,0.0321,0.0225,0.0225,0.0224,0.0224,0,0,0.0131,0.0173,0.0177,0.0196,0.0221,0.0234,0.0243,0.0255,0.0264,0.0266,0.0282,0.0274,0.0272,0.0271,0.0265,0.0291,0.0338,0.0296,0.0298,0.0322,0.0424,0.0395,0.04,0.0361,0.0362,0.0363,0.0421,0,0.0148,0.0191,0.0203,0.0238,0.0262,0.0267,0.0277,0.0283,0.0287,0.0303,0.0296,0.0313,0.0281,0.0293,0.0309,0.0345,0.036,0.0321,0.0398,0.0399,0.0377,0.0409,0.0421,0.0471,0.0428,0.043,0.0431,0,0.0168,0.0196,0.0236,0.027,0.0279,0.0294,0.0312,0.0324,0.0335,0.0339,0.0344,0.0348,0.0372,0.0352,0.0406,0.0388,0.0398,0.0417,0.042,0.0394,0.0386,0.0447,0.0487,0.0478,0.0443,0.0442,0.0441,0,0.0172,0.0216,0.0249,0.0263,0.03,0.0309,0.0322,0.0333,0.0352,0.0371,0.0402,0.0409,0.0449,0.0463,0.0478,0.0459,0.0547,0.0531,0.0504,0.0502,0.0526,0.0523,0.0571,0.0563,0.0563,0.0562,0.0562,0,0.0192,0.0218,0.0254,0.0276,0.0306,0.0322,0.0351,0.036,0.0392,0.0435,0.0427,0.0478,0.0486,0.0526,0.0514,0.0538,0.0577,0.0513,0.0522,0.0528,0.0525,0.0527,0.0512,0.0565,0.0564,0.0564,0.0563,0,0.0201,0.0226,0.0268,0.0306,0.0314,0.0338,0.0378,0.0406,0.0433,0.0497,0.0516,0.0563,0.0624,0.0612,0.0657,0.0605,0.0617,0.0606,0.0596,0.0602,0.0546,0.053,0.059,0.0594,0.0593,0.0593,0.0593,0,0.0216,0.024,0.0286,0.0311,0.0331,0.0364,0.0392,0.042,0.0466,0.0557,0.0607,0.0674,0.0743,0.0775,0.071,0.0681,0.065,0.0632,0.0585,0.0551,0.0542,0.0539,0.0538,0.0625,0.0625,0.0625,0.0625,0,0.0245,0.0259,0.0293,0.0341,0.0376,0.0418,0.0468,0.0514,0.0572,0.0646,0.0766,0.0832,0.0852,0.0853,0.0775,0.073,0.0632,0.0629,0.0623,0.059,0.0568,0.0573,0.056,0.0626,0.0625,0.0625,0.0625,0.0625,0.0264,0.029,0.0333,0.0378,0.0424,0.0487,0.0532,0.061,0.0708,0.0847,0.089,0.1013,0.0961,0.0879,0.0808,0.0654,0.0656,0.0604,0.0595,0.06,0.0584,0.0549,0.06,0.06,0.06,0.06,0.06,0,0.0292,0.032,0.0367,0.0432,0.0492,0.0505,0.0598,0.0664,0.0801,0.0941,0.1059,0.1106,0.1055,0.0936,0.0737,0.0647,0.0618,0.0594,0.061,0.0615,0.0619,0.0598,0.0619,0.0619,0.0619,0.0619,0.0619,0.0619,0.0309,0.0354,0.0377,0.048,0.053,0.0613,0.0671,0.0782,0.0896,0.108,0.1166,0.1225,0.1139,0.0869,0.0701,0.0648,0.0623,0.0593,0.0582,0.0588,0.0589,0.059,0.0568,0.0582,0.0582,0.0601,0.0601,0.0601]}],[{"header":{"parameterUnit":"m.s-1","parameterCategory":2,"la1":30.2991,"la2":30.254,"lo1":-89.0895,"lo2":-89.0444,"dy":0.0017,"dx":0.0017,"nx":28,"ny":28,"refTime":"2025-06-13T21:00:00:Z","depth":"2","parameterNumber":2,"parameterNumberName":"U-component_of_CURRENTS"},"data":[0,0,0,0,0,0,0,0,0,0,0,0,0,0,0,0,0,0,0,0,0,0,0,0,0,0,0,0,0,0,0,0,0,0,0,0,0,0,0,0,0,0,0,0,0,0,0,0,0,0,0,0,0,0,0,0,0,0,0.1292,0.1293,0,0.1317,0.1317,0.1317,0.1309,0.1309,0.1309,0.1309,0.1289,0.1289,0.1288,0,0,0,0,0,0,0,0,0,0,0,0,0,0.1289,0.1289,0.1292,0.1293,0.1293,0.1317,0.1317,0.1317,0.1309,0.1309,0.1309,0.1308,0.1289,0.1289,0.1288,0,0,0,0,0,0,0,0,0,0,0,0,0,0.1296,0.1288,0.1292,0.1295,0.1296,0.1317,0.1317,0.1317,0.1309,0.1309,0.1309,0.1308,0.1289,0.1289,0.1288,0.1291,0,0,0.1287,0.1286,0,0,0,0,0,0,0,0,0.1296,0.1296,0.1294,0.1295,0.1296,0.1313,0.1309,0.1307,0.1309,0.13,0.1309,0.1308,0.1295,0.1294,0.1295,0.129,0.1289,0.1287,0.1286,0.1286,0.1286,0,0,0,0,0,0,0,0.1295,0.1295,0.1298,0.1295,0.1296,0.1313,0.1313,0.1309,0.1296,0.1301,0.1301,0.131,0.1295,0.1296,0.1295,0.1289,0.1287,0.1286,0.1286,0.1286,0.132,0.1321,0,0,0,0,0,0,0.1297,0.1294,0.1298,0.1299,0.1299,0.1313,0.1313,0.1305,0.1297,0.1297,0.131,0.131,0.1297,0.1295,0.1294,0.1331,0.1286,0.1286,0.1285,0.1319,0.132,0.1322,0,0,0,0,0,0,0.1296,0.1296,0.1297,0.1302,0.1303,0.1314,0.1305,0.1305,0.1312,0.1305,0.1303,0.1318,0.1296,0.1295,0.1301,0.1328,0.1285,0.1285,0.1317,0.1319,0.1321,0.1382,0,0,0,0,0,0,0.1296,0.1295,0.1298,0.1301,0.1303,0.1301,0.1305,0.1306,0.132,0.1319,0.131,0.1308,0.1296,0.1302,0.1301,0.1327,0.1285,0.1316,0.1318,0.132,0.1379,0.1386,0.1392,0,0,0,0,0,0.1295,0.13,0.1298,0.1299,0.1303,0.1301,0.1303,0.1308,0.132,0.1315,0.1324,0.1309,0.1316,0.1303,0.1301,0.1327,0.1315,0.1317,0.132,0.1375,0.1384,0.1392,0,0,0,0,0,0,0.13,0.13,0.1297,0.1301,0.1298,0.1301,0.1309,0.1315,0.132,0.1327,0.1319,0.1317,0.1338,0.1322,0.1308,0.1345,0.1315,0.1317,0.1358,0.1366,0.1372,0.1367,0.1284,0,0,0,0,0,0.1303,0.1302,0.1301,0.1302,0.1303,0.1308,0.1315,0.1317,0.1322,0.1324,0.1333,0.134,0.1348,0.1347,0.1351,0.1363,0.1378,0.1381,0.1388,0.1393,0.1389,0.1462,0.1476,0.133,0.133,0.133,0,0,0.1304,0.1306,0.1305,0.1303,0.1305,0.1313,0.131,0.1319,0.1314,0.1322,0.1338,0.1366,0.1358,0.138,0.1387,0.1368,0.1441,0.1397,0.1402,0.1394,0.1467,0.1481,0.1494,0.1332,0.1332,0.1332,0,0,0.1311,0.1307,0.1311,0.131,0.1318,0.1323,0.1328,0.1343,0.1331,0.1356,0.1366,0.141,0.142,0.1427,0.1426,0.1469,0.148,0.1478,0.1503,0.1575,0.1588,0.1599,0.1633,0.1647,0.1477,0.1477,0.1477,0,0.1317,0.1314,0.1312,0.1318,0.1322,0.133,0.1336,0.1325,0.1345,0.1367,0.1365,0.145,0.144,0.1473,0.1487,0.1484,0.1521,0.1473,0.1585,0.1597,0.1607,0.1639,0.1654,0.148,0.148,0.1479,0.1479,0,0.132,0.1325,0.1328,0.1336,0.1341,0.1344,0.1335,0.1357,0.1379,0.1405,0.146,0.1468,0.1525,0.1533,0.1517,0.159,0.1591,0.1593,0.1567,0.1626,0.1655,0.1669,0.1485,0.1484,0.1483,0.1482,0,0,0.1312,0.1327,0.1327,0.1332,0.1347,0.1349,0.1359,0.1384,0.1413,0.1459,0.1502,0.1541,0.1594,0.1594,0.1597,0.1645,0.1743,0.1652,0.1655,0.1688,0.1896,0.1743,0.1743,0.1786,0.1789,0.1791,0.1885,0,0.1312,0.133,0.1332,0.1347,0.1358,0.1371,0.1367,0.1402,0.1443,0.1492,0.153,0.1596,0.1592,0.1645,0.1686,0.1742,0.1785,0.1716,0.183,0.1832,0.1692,0.1756,0.1594,0.1652,0.1899,0.1901,0.1903,0,0.1311,0.1325,0.134,0.1351,0.1352,0.1368,0.141,0.1409,0.1481,0.1521,0.1621,0.1668,0.1752,0.173,0.1859,0.1829,0.1861,0.1891,0.1896,0.1738,0.1705,0.1633,0.1668,0.1926,0.1925,0.1923,0.1921,0,0.1306,0.1327,0.1339,0.1343,0.1362,0.1377,0.1396,0.1457,0.1472,0.1584,0.166,0.1753,0.1816,0.1898,0.1948,0.1946,0.2059,0.2067,0.1951,0.194,0.181,0.1781,0.2147,0.2147,0.2147,0.2146,0.2146,0,0.1297,0.1304,0.1346,0.1347,0.1365,0.1382,0.1413,0.1457,0.1524,0.1587,0.1688,0.1746,0.1874,0.1943,0.198,0.1992,0.21,0.1958,0.196,0.1822,0.1794,0.2033,0.2018,0.215,0.2149,0.2148,0.2148,0,0.1281,0.13,0.132,0.1351,0.1363,0.1384,0.1425,0.1468,0.1541,0.1628,0.169,0.1796,0.1906,0.1972,0.2085,0.2026,0.2064,0.2028,0.1825,0.1798,0.1893,0.188,0.1953,0.1948,0.1945,0.1941,0.1939,0,0.1267,0.1282,0.1328,0.1352,0.1369,0.1404,0.1433,0.1484,0.1536,0.1648,0.1691,0.1819,0.1859,0.1916,0.1891,0.1915,0.1989,0.1732,0.1676,0.1881,0.1877,0.1871,0.1864,0.1546,0.1541,0.1536,0.1532,0,0.1244,0.127,0.128,0.135,0.139,0.1416,0.1464,0.1483,0.1557,0.1619,0.1685,0.1726,0.1767,0.168,0.1653,0.1645,0.1719,0.1633,0.1955,0.1584,0.1495,0.1491,0.1499,0.1491,0.1495,0.1498,0.15,0.1502,0.1225,0.1238,0.128,0.1326,0.1367,0.1397,0.1388,0.1433,0.1449,0.1462,0.1561,0.1532,0.1528,0.1392,0.135,0.1321,0.1458,0.1387,0.1404,0.1425,0.1325,0.123,0.1157,0.1159,0.1161,0.1163,0.1164,0,0.1208,0.123,0.1268,0.1307,0.1319,0.1374,0.1381,0.1337,0.1303,0.1314,0.1314,0.1163,0.1069,0.1103,0.0984,0.0949,0.0981,0.0913,0.0955,0.0995,0.1031,0.0914,0.0637,0.0635,0.0634,0.0632,0,0,0.1203,0.1204,0.1212,0.1218,0.1263,0.1247,0.1218,0.1163,0.1113,0.0985,0.0929,0.0956,0.1021,0.0796,0.0765,0.0686,0.084,0.0652,0.1073,0.1161,0.1195,0.1297,0.1158,0,0,0,0,0]},{"header":{"parameterUnit":"m.s-1","parameterCategory":2,"la1":30.2991,"la2":30.254,"lo1":-89.0895,"lo2":-89.0444,"dy":0.0017,"dx":0.0017,"nx":28,"ny":28,"refTime":"2025-06-13T21:00:00:Z","depth":"2","parameterNumber":3,"parameterNumberName":"V-component_of_CURRENTS"},"data":[0,0,0,0,0,0,0,0,0,0,0,0,0,0,0,0,0,0,0,0,0,0,0,0,0,0,0,0,0,0,0,0,0,0,0,0,0,0,0,0,0,0,0,0,0,0,0,0,0,0,0,0,0,0,0,0,0,0,-0.0027,-0.0027,0,-0.0015,-0.0015,-0.0015,-0.0007,-0.0007,-0.0007,-0.0007,0.0006,0.0006,0.0006,0,0,0,0,0,0,0,0,0,0,0,0,0,-0.0053,-0.0052,-0.0027,-0.0027,-0.0027,-0.0015,-0.0015,-0.0015,-0.0007,-0.0007,-0.0007,-0.0007,0.0005,0.0006,0.0006,0,0,0,0,0,0,0,0,0,0,0,0,0,-0.004,-0.0052,-0.0027,-0.0023,-0.0022,-0.0015,-0.0015,-0.0014,-0.0007,-0.0007,-0.0007,-0.0007,0.0005,0.0006,0.0006,0.0012,0,0,0.0008,0.0008,0,0,0,0,0,0,0,0,-0.0041,-0.0039,-0.0023,-0.0023,-0.0022,-0.0014,-0.0019,-0.0006,-0.0007,-0.0012,-0.0007,-0.0007,-0.0001,-0.0,0.0004,0.0012,0.0013,0.0008,0.0009,0.0009,0.0009,0,0,0,0,0,0,0,-0.0042,-0.004,-0.0021,-0.0023,-0.0023,-0.0024,-0.0022,-0.0017,-0.0005,-0.0011,-0.0011,-0.0011,-0.0001,0.0003,0.0004,0.0013,0.0008,0.0009,0.0009,0.0009,0.002,0.002,0,0,0,0,0,0,-0.0045,-0.004,-0.0022,-0.0021,-0.0033,-0.0024,-0.0022,-0.0015,-0.0005,-0.0004,-0.0011,-0.0011,0.0002,0.0003,0.0004,0.0015,0.0009,0.0009,0.001,0.002,0.002,0.002,0,0,0,0,0,0,-0.0045,-0.0043,-0.0022,-0.0032,-0.0029,-0.0023,-0.0016,-0.0015,-0.0011,-0.0006,-0.0004,-0.0008,0.0002,0.0004,0.001,0.0016,0.001,0.001,0.002,0.002,0.002,0.0035,0,0,0,0,0,0,-0.0046,-0.0043,-0.0041,-0.0032,-0.0029,-0.0014,-0.0016,-0.0015,-0.0011,-0.0011,-0.0002,-0.0001,0.0002,0.0009,0.0011,0.0016,0.0011,0.002,0.002,0.002,0.0034,0.0035,0.0036,0,0,0,0,0,-0.0046,-0.0039,-0.0041,-0.0039,-0.0026,-0.0014,-0.0012,-0.0008,-0.0011,-0.0005,-0.0003,-0.0002,0.0009,0.001,0.0012,0.0018,0.002,0.002,0.002,0.0034,0.0035,0.0036,0,0,0,0,0,0,-0.0049,-0.0038,-0.0039,-0.0029,-0.0022,-0.0013,-0.0008,-0.0008,-0.0001,-0.0002,0.0001,0.0002,0.0009,0.0009,0.001,0.0018,0.0014,0.0014,0.0024,0.0025,0.0025,0.0028,0.0011,0,0,0,0,0,-0.005,-0.004,-0.0033,-0.0025,-0.0021,-0.0016,-0.0012,-0.0009,-0.0002,0.0,0.0006,0.0008,0.001,0.0014,0.0017,0.0025,0.0036,0.0027,0.0028,0.0029,0.0032,0.0059,0.0063,0.0019,0.0019,0.0019,0,0,-0.0051,-0.0042,-0.0038,-0.0025,-0.0019,-0.0007,-0.0013,-0.0004,0.0006,0.0001,0.0016,0.0012,0.0011,0.002,0.0022,0.0021,0.0046,0.0029,0.003,0.0032,0.006,0.0064,0.0068,0.0019,0.0019,0.0019,0,0,-0.0039,-0.0037,-0.0024,-0.0015,-0.0005,-0.0002,0.0,0.0011,0.0015,0.0025,0.0021,0.0021,0.0029,0.003,0.003,0.0036,0.0048,0.0034,0.0044,0.0071,0.0076,0.008,0.0097,0.0102,0.0036,0.0036,0.0036,0,-0.0041,-0.002,-0.0019,-0.0002,0.0007,0.0001,0.0018,0.0022,0.0032,0.0033,0.0032,0.0038,0.0035,0.0044,0.0041,0.0039,0.0054,0.0043,0.0074,0.0078,0.0082,0.0098,0.0104,0.0037,0.0037,0.0037,0.0037,0,-0.0016,-0.0001,0.0009,0.0029,0.0035,0.0049,0.0053,0.0056,0.0055,0.0055,0.0063,0.0062,0.0065,0.0061,0.0051,0.0071,0.0072,0.0072,0.0075,0.0088,0.0104,0.0109,0.0038,0.0038,0.0037,0.0037,0,0,-0.0015,0.002,0.0024,0.0039,0.0054,0.0063,0.0072,0.0078,0.0085,0.0087,0.0108,0.0094,0.0088,0.0087,0.008,0.0097,0.0127,0.0094,0.0095,0.0117,0.0186,0.0167,0.0171,0.0139,0.014,0.0141,0.0186,0,0.0006,0.0047,0.0055,0.0085,0.0105,0.0101,0.0115,0.0115,0.0111,0.0129,0.0122,0.0133,0.0101,0.0106,0.0117,0.0136,0.0143,0.0115,0.0165,0.0166,0.0154,0.0178,0.0183,0.0222,0.0191,0.0192,0.0193,0,0.0029,0.0055,0.0092,0.0122,0.0129,0.0141,0.0151,0.0163,0.017,0.0169,0.0169,0.0166,0.0185,0.0162,0.0194,0.0181,0.0176,0.0184,0.0186,0.0168,0.0159,0.0204,0.0233,0.0203,0.0202,0.0201,0.02,0,0.0038,0.0078,0.0109,0.0122,0.0153,0.016,0.017,0.0171,0.0191,0.0195,0.0217,0.0221,0.0253,0.0252,0.0248,0.023,0.0296,0.0275,0.0247,0.0246,0.0258,0.0256,0.0286,0.0286,0.0286,0.0286,0.0286,0,0.0061,0.0085,0.0116,0.0136,0.0167,0.0178,0.0206,0.0204,0.0234,0.0279,0.0243,0.0299,0.028,0.0309,0.0285,0.0295,0.0324,0.0256,0.0261,0.0262,0.0259,0.0246,0.0241,0.0288,0.0287,0.0287,0.0287,0,0.007,0.0094,0.0132,0.0167,0.0176,0.0197,0.0238,0.0264,0.0276,0.0342,0.0353,0.0382,0.0421,0.0387,0.0406,0.0354,0.0353,0.0337,0.033,0.0332,0.0272,0.0266,0.0319,0.0318,0.0318,0.0318,0.0318,0,0.0083,0.0106,0.015,0.0173,0.0189,0.0224,0.0255,0.028,0.0324,0.0411,0.0466,0.0504,0.0554,0.0554,0.0477,0.0423,0.0392,0.0358,0.0307,0.0278,0.0278,0.0273,0.0268,0.0333,0.0333,0.0333,0.0333,0,0.0106,0.0121,0.0152,0.02,0.0234,0.0286,0.034,0.039,0.0452,0.0519,0.0639,0.0685,0.0668,0.0632,0.0516,0.0468,0.0363,0.0354,0.036,0.0312,0.0292,0.0291,0.0286,0.0333,0.0333,0.0333,0.0333,0.0333,0.0119,0.0144,0.0187,0.0234,0.0283,0.0365,0.042,0.0501,0.0608,0.0724,0.0771,0.0825,0.0738,0.0608,0.0517,0.0387,0.0393,0.0323,0.0323,0.0324,0.0305,0.0285,0.0321,0.0321,0.0321,0.0321,0.0321,0,0.0146,0.0176,0.0218,0.029,0.0359,0.0378,0.0493,0.0564,0.071,0.0793,0.0885,0.0805,0.075,0.0633,0.0452,0.0344,0.0326,0.0294,0.0299,0.03,0.0301,0.028,0.0291,0.029,0.029,0.0289,0,0,0.0161,0.0209,0.0236,0.0352,0.0405,0.0509,0.0583,0.069,0.0769,0.0867,0.0885,0.091,0.0776,0.063,0.0499,0.0396,0.0364,0.0366,0.0403,0.0427,0.0429,0.0334,0.0306,0,0,0,0,0]}],[{"header":{"parameterUnit":"m.s-1","parameterCategory":2,"la1":30.2991,"la2":30.254,"lo1":-89.0895,"lo2":-89.0444,"dy":0.0017,"dx":0.0017,"nx":28,"ny":28,"refTime":"2025-06-13T21:00:00:Z","depth":"4","parameterNumber":2,"parameterNumberName":"U-component_of_CURRENTS"},"data":[0,0,0,0,0,0,0,0,0,0,0,0,0,0,0,0,0,0,0,0,0,0,0,0,0,0,0,0,0,0,0,0,0,0,0,0,0,0,0,0,0,0,0,0,0,0,0,0,0,0,0,0,0,0,0,0,0,0,0.0437,0.0437,0,0.0461,0.0462,0.0462,0.0526,0.0527,0.0528,0.0529,0.0566,0.0565,0.0565,0,0,0,0,0,0,0,0,0,0,0,0,0,0.0471,0.0471,0.0437,0.0437,0.0437,0.0461,0.0462,0.0462,0.0525,0.0527,0.0528,0.0529,0.0566,0.0565,0.0565,0,0,0,0,0,0,0,0,0,0,0,0,0,0.0475,0.047,0.0437,0.0469,0.0472,0.0461,0.0462,0.0462,0.0525,0.0527,0.0528,0.053,0.0566,0.0565,0.0565,0.0533,0,0,0.0565,0.0565,0,0,0,0,0,0,0,0,0.0475,0.0474,0.0465,0.0467,0.047,0.0489,0.0487,0.0486,0.0525,0.0508,0.0529,0.0531,0.0538,0.054,0.0546,0.0535,0.0537,0.0565,0.0565,0.0565,0.0565,0,0,0,0,0,0,0,0.0474,0.0474,0.045,0.0464,0.0468,0.0491,0.0493,0.0487,0.0517,0.051,0.0514,0.0511,0.054,0.0545,0.0547,0.0537,0.0565,0.0565,0.0565,0.0565,0.0608,0.0609,0,0,0,0,0,0,0.0461,0.0473,0.0449,0.045,0.0473,0.0488,0.0491,0.0484,0.0517,0.0522,0.0509,0.0514,0.0545,0.0547,0.0548,0.0592,0.0565,0.0565,0.0565,0.0607,0.0608,0.0609,0,0,0,0,0,0,0.0462,0.0459,0.0448,0.046,0.046,0.0486,0.0477,0.0484,0.0513,0.0515,0.0522,0.0534,0.0546,0.0548,0.0564,0.0591,0.0565,0.0565,0.0605,0.0607,0.0609,0.0627,0,0,0,0,0,0,0.0463,0.0459,0.0464,0.0459,0.0459,0.0454,0.0476,0.0483,0.0505,0.0512,0.0538,0.0542,0.0547,0.0564,0.0564,0.059,0.0565,0.0604,0.0606,0.0608,0.0625,0.0629,0.0633,0,0,0,0,0,0.0464,0.046,0.0463,0.0461,0.0459,0.0453,0.0456,0.0482,0.0505,0.0515,0.0537,0.0542,0.0579,0.0564,0.0564,0.0591,0.0603,0.0606,0.0608,0.0623,0.0629,0.0633,0,0,0,0,0,0,0.0475,0.0465,0.047,0.0463,0.0463,0.0463,0.0477,0.0489,0.0515,0.0531,0.0541,0.0546,0.0575,0.0576,0.056,0.0613,0.0598,0.06,0.061,0.0614,0.0618,0.0615,0.0565,0,0,0,0,0,0.0476,0.0475,0.0465,0.0461,0.0464,0.0474,0.048,0.0493,0.0505,0.0521,0.054,0.0564,0.058,0.0592,0.0605,0.0618,0.0627,0.0642,0.0645,0.0649,0.0648,0.0675,0.0681,0.0618,0.0618,0.0618,0,0,0.0479,0.0472,0.0473,0.0464,0.0472,0.0471,0.0484,0.0495,0.0505,0.0517,0.0552,0.0573,0.0586,0.0613,0.0627,0.062,0.0675,0.0652,0.0654,0.0652,0.0678,0.0684,0.0689,0.062,0.0619,0.0619,0,0,0.0477,0.0479,0.048,0.0484,0.0488,0.0484,0.0489,0.0502,0.0526,0.0543,0.0567,0.0597,0.0621,0.0639,0.0648,0.0676,0.0693,0.0698,0.0714,0.074,0.0745,0.075,0.0782,0.0789,0.0701,0.0701,0.0701,0,0.0485,0.0475,0.048,0.0483,0.0484,0.049,0.049,0.0506,0.0526,0.0538,0.0561,0.062,0.063,0.0662,0.0683,0.0683,0.0709,0.0693,0.0744,0.0749,0.0753,0.0785,0.0792,0.0703,0.0702,0.0702,0.0702,0,0.048,0.0483,0.0485,0.0485,0.0488,0.0489,0.0498,0.0513,0.0538,0.0553,0.0603,0.0634,0.0667,0.0689,0.0694,0.074,0.0753,0.0743,0.0729,0.076,0.0792,0.08,0.0704,0.0704,0.0703,0.0703,0,0,0.0471,0.0478,0.0486,0.0485,0.0491,0.0488,0.0499,0.0501,0.0512,0.0566,0.0587,0.0647,0.0681,0.0696,0.0726,0.0759,0.0814,0.0774,0.0775,0.0799,0.0891,0.0797,0.0797,0.0823,0.0824,0.0825,0.0905,0,0.0466,0.0468,0.0474,0.0475,0.047,0.048,0.048,0.0492,0.0516,0.054,0.0596,0.0637,0.068,0.0712,0.0753,0.081,0.0834,0.0794,0.0862,0.0864,0.0771,0.0802,0.0829,0.091,0.0912,0.0913,0.0914,0,0.0458,0.0457,0.0458,0.0454,0.0456,0.0458,0.0458,0.0471,0.0497,0.0519,0.0579,0.0623,0.0708,0.0718,0.0845,0.0829,0.0854,0.089,0.0894,0.0801,0.0783,0.087,0.0928,0.0927,0.0926,0.0925,0.0924,0,0.044,0.0446,0.0443,0.0448,0.0444,0.0448,0.0452,0.0469,0.0486,0.0526,0.0548,0.064,0.0701,0.0777,0.0866,0.0869,0.0975,0.0977,0.0912,0.0907,0.0959,0.0953,0.1015,0.1015,0.1015,0.1015,0.1015,0,0.042,0.0424,0.0437,0.0442,0.0429,0.0444,0.0452,0.0457,0.0484,0.0501,0.056,0.0599,0.072,0.0794,0.0864,0.0923,0.0978,0.0918,0.0917,0.0967,0.0961,0.0965,0.0958,0.1018,0.1017,0.1017,0.1016,0,0.0397,0.0412,0.0407,0.0416,0.0423,0.0422,0.0453,0.0447,0.049,0.0515,0.0536,0.0602,0.0705,0.0797,0.0906,0.091,0.0972,0.0952,0.1007,0.1007,0.0893,0.0886,0.0921,0.0918,0.0916,0.0914,0.0912,0,0.0383,0.0376,0.0396,0.0386,0.0392,0.0406,0.0396,0.044,0.0446,0.0519,0.0516,0.061,0.0655,0.0758,0.0844,0.0944,0.0922,0.0935,0.091,0.0885,0.0882,0.0879,0.0876,0.0909,0.0908,0.0907,0.0907,0,0.0343,0.0358,0.0364,0.0343,0.0338,0.0337,0.0348,0.0357,0.0405,0.0454,0.0495,0.0548,0.0623,0.072,0.0768,0.0839,0.0935,0.0912,0.0917,0.0894,0.0871,0.0869,0.0869,0.0899,0.09,0.0901,0.0901,0,0.0321,0.0314,0.0319,0.03,0.0277,0.0257,0.0283,0.0297,0.0329,0.0412,0.0428,0.0529,0.0606,0.0663,0.0731,0.0773,0.078,0.0762,0.0775,0.0785,0.0702,0.0652,0.0613,0,0,0,0,0,0.0292,0.0288,0.0263,0.024,0.0203,0.0214,0.0227,0.0257,0.0324,0.033,0.0384,0.0452,0.0537,0.0594,0.0621,0.0683,0.0783,0.0707,0.0767,0.0855,0.0864,0.0778,0,0,0,0,0,0,0.0272,0.0264,0.0264,0.0189,0.0162,0.0137,0.0159,0.0206,0.0226,0.0298,0.0357,0.0412,0.0516,0.053,0.0612,0.063,0.0654,0.0774,0.0772,0.0849,0.0858,0.0865,0.0781,0,0,0,0,0]},{"header":{"parameterUnit":"m.s-1","parameterCategory":2,"la1":30.2991,"la2":30.254,"lo1":-89.0895,"lo2":-89.0444,"dy":0.0017,"dx":0.0017,"nx":28,"ny":28,"refTime":"2025-06-13T21:00:00:Z","depth":"4","parameterNumber":3,"parameterNumberName":"V-component_of_CURRENTS"},"data":[0,0,0,0,0,0,0,0,0,0,0,0,0,0,0,0,0,0,0,0,0,0,0,0,0,0,0,0,0,0,0,0,0,0,0,0,0,0,0,0,0,0,0,0,0,0,0,0,0,0,0,0,0,0,0,0,0,0,0.0016,0.0016,0,0.0016,0.0016,0.0016,0.0006,0.0005,0.0005,0.0005,0.0012,0.0012,0.0012,0,0,0,0,0,0,0,0,0,0,0,0,0,-0.0008,-0.0007,0.0016,0.0016,0.0016,0.0016,0.0016,0.0016,0.0006,0.0005,0.0005,0.0005,0.0011,0.0012,0.0012,0,0,0,0,0,0,0,0,0,0,0,0,0,-0.0002,-0.0007,0.0016,0.0011,0.001,0.0016,0.0016,0.0016,0.0006,0.0005,0.0005,0.0004,0.0011,0.0012,0.0012,0.0024,0,0,0.0014,0.0015,0,0,0,0,0,0,0,0,-0.0002,-0.0001,0.0011,0.0011,0.0011,0.001,0.001,0.0019,0.0006,0.0007,0.0005,0.0004,0.0012,0.0013,0.0013,0.0024,0.0025,0.0014,0.0015,0.0015,0.0015,0,0,0,0,0,0,0,-0.0002,-0.0001,0.0015,0.0011,0.0011,0.0004,0.0004,0.0012,0.0012,0.0007,0.0006,0.0007,0.0012,0.0013,0.0013,0.0025,0.0014,0.0015,0.0015,0.0016,0.0031,0.0031,0,0,0,0,0,0,-0.0001,-0.0001,0.0015,0.0015,0.0003,0.0005,0.0005,0.0011,0.0012,0.0011,0.0007,0.0006,0.0012,0.0013,0.0014,0.0026,0.0015,0.0016,0.0016,0.0031,0.0031,0.0031,0,0,0,0,0,0,-0.0001,0.0001,0.0015,0.0007,0.0008,0.0005,0.0012,0.0011,0.001,0.0012,0.0011,0.0007,0.0012,0.0013,0.0018,0.0026,0.0016,0.0017,0.0031,0.0031,0.0031,0.0051,0,0,0,0,0,0,-0.0002,0.0001,0.0006,0.0007,0.0009,0.0021,0.0012,0.0011,0.0011,0.001,0.0012,0.0012,0.0011,0.0017,0.0018,0.0027,0.0017,0.0031,0.0031,0.0031,0.0051,0.0052,0.0053,0,0,0,0,0,-0.0002,0.0007,0.0006,0.0008,0.0015,0.0021,0.0021,0.0017,0.0012,0.0015,0.0012,0.0012,0.0018,0.0018,0.0019,0.0028,0.0031,0.0031,0.0031,0.005,0.0052,0.0053,0,0,0,0,0,0,-0.0,0.0007,0.0006,0.0017,0.0019,0.0019,0.0022,0.0019,0.0019,0.0018,0.0015,0.0016,0.0022,0.0021,0.002,0.0031,0.0023,0.0024,0.0037,0.0039,0.004,0.0052,0.0018,0,0,0,0,0,0.0003,0.0011,0.0015,0.0023,0.0025,0.0023,0.0025,0.0023,0.0023,0.0023,0.0023,0.0022,0.0024,0.0028,0.0029,0.0039,0.0037,0.0044,0.0045,0.0046,0.0056,0.0057,0.006,0.0031,0.0031,0.0031,0,0,0.0004,0.0011,0.0014,0.0024,0.0025,0.0036,0.0023,0.0028,0.0039,0.0025,0.0037,0.0028,0.0027,0.0035,0.0038,0.0036,0.0051,0.0047,0.0048,0.0057,0.0058,0.0061,0.0063,0.0031,0.0031,0.0031,0,0,0.0016,0.0019,0.0031,0.0037,0.0042,0.0044,0.0046,0.0047,0.0048,0.0057,0.0047,0.0046,0.005,0.0052,0.0054,0.0065,0.0056,0.0058,0.0079,0.008,0.0083,0.0085,0.0078,0.0079,0.0061,0.0061,0.0061,0,0.0018,0.0037,0.0034,0.0049,0.006,0.0049,0.0068,0.007,0.0072,0.008,0.0064,0.0068,0.0063,0.008,0.0076,0.0071,0.0062,0.0074,0.0083,0.0085,0.0087,0.0079,0.0081,0.0062,0.0062,0.0062,0.0061,0,0.004,0.0056,0.0064,0.0083,0.0092,0.0105,0.011,0.0118,0.0114,0.0116,0.0125,0.011,0.0115,0.0106,0.0094,0.0105,0.009,0.0083,0.0081,0.0091,0.0082,0.0083,0.0063,0.0063,0.0063,0.0062,0,0,0.0046,0.0075,0.0078,0.0097,0.0114,0.0125,0.0147,0.0168,0.0188,0.0175,0.0197,0.0184,0.0168,0.0168,0.0148,0.0141,0.0139,0.0115,0.0114,0.0112,0.013,0.012,0.0121,0.0127,0.0128,0.0128,0.0114,0,0.0066,0.0104,0.0114,0.0151,0.0172,0.018,0.0206,0.0222,0.0227,0.0242,0.0225,0.0234,0.0195,0.0193,0.0179,0.0149,0.0144,0.0143,0.0117,0.0116,0.011,0.0123,0.013,0.0115,0.0116,0.0116,0.0116,0,0.0087,0.0112,0.0154,0.0198,0.0208,0.0228,0.0271,0.0295,0.0313,0.0318,0.0316,0.0297,0.0285,0.0249,0.021,0.0207,0.0173,0.0146,0.0145,0.0134,0.011,0.0104,0.0118,0.0118,0.0118,0.0117,0.0117,0,0.0097,0.0141,0.0178,0.0192,0.0237,0.026,0.0285,0.0316,0.0349,0.0365,0.0378,0.0358,0.0347,0.0305,0.0235,0.0225,0.0188,0.0172,0.0136,0.0134,0.0137,0.0135,0.0158,0.0158,0.0158,0.0158,0.0158,0,0.0119,0.0148,0.0185,0.0205,0.0258,0.028,0.0336,0.0359,0.0399,0.0435,0.0413,0.0421,0.0358,0.0322,0.026,0.0198,0.0209,0.0147,0.0135,0.0144,0.0143,0.0138,0.0136,0.0157,0.0157,0.0157,0.0157,0,0.0125,0.0151,0.0196,0.0244,0.0265,0.0302,0.0372,0.0411,0.0441,0.0484,0.0491,0.0474,0.0425,0.0358,0.029,0.0234,0.0178,0.0155,0.0168,0.0156,0.0117,0.0116,0.0123,0.0123,0.0122,0.0122,0.0122,0,0.0134,0.0157,0.0217,0.0253,0.0277,0.0335,0.038,0.0431,0.047,0.0508,0.0525,0.0499,0.047,0.0367,0.0295,0.0198,0.0177,0.0147,0.0134,0.0129,0.0116,0.0116,0.0115,0.0122,0.0121,0.0121,0.0121,0,0.015,0.0168,0.0201,0.027,0.0321,0.0392,0.0449,0.0478,0.053,0.0551,0.0551,0.0504,0.0451,0.0366,0.0294,0.0219,0.0167,0.0144,0.0144,0.0131,0.0127,0.0115,0.0115,0.012,0.0121,0.0121,0.0121,0,0.0158,0.0179,0.0221,0.0285,0.0358,0.043,0.0459,0.0498,0.0541,0.0567,0.056,0.0506,0.0478,0.0377,0.0307,0.0238,0.0217,0.0183,0.018,0.0181,0.0196,0.0199,0.0214,0,0,0,0,0,0.0168,0.019,0.024,0.0312,0.0385,0.0435,0.0503,0.0526,0.0554,0.0554,0.0563,0.0511,0.0417,0.0377,0.0308,0.0299,0.0205,0.0215,0.0164,0.0115,0.0116,0.0123,0,0,0,0,0,0,0.0175,0.0213,0.0232,0.0327,0.0381,0.0469,0.0515,0.0535,0.0535,0.0543,0.0493,0.0481,0.039,0.0452,0.0301,0.0284,0.0239,0.0177,0.0175,0.0115,0.0116,0.0116,0.0124,0,0,0,0,0]}]]